Date String (YYYY-MM-DD hh:mm:ss) UTC,Instrument flags,Ambient pressure (hPa),Sample flow (lpm),Bypass flow (lpm),Sample temperature (°C),Ambient temperature (°C),ASC tube jacket temperature (°C),LED temperature (°C),Box temperature (°C),Sample RH (%),Span deviation,Mass concentration (μg/m³),Mass concentration (μg/m³),Mass concentration (μg/m³)
DateTimeUTC,F1_M11,P_M11,Q1_M11,Q2_M11,T1_M11,T2_M11,T3_M11,T4_M11,T5_M11,U1_M11,ZSPAN_M11,X2_M11,X0_M11,X1_M11
2021-10-03 20:00:00,,0830.3,5.00,0.00,29.5,28.0,00.0,38.5,31.3,10.6,0001.5,0003.53,0007.13,0003.26
2021-10-03 20:01:00,,0830.3,4.99,0.00,29.6,28.2,00.0,38.5,31.4,10.7,0001.4,0003.52,0007.26,0003.27
2021-10-03 20:02:00,,0830.2,5.00,0.00,29.6,28.5,00.0,38.6,31.5,10.6,0001.6,0003.54,0008.12,0003.27
2021-10-03 20:03:00,,0830.3,5.00,0.00,29.7,28.6,00.0,38.6,31.5,10.5,0001.3,0003.55,0008.62,0003.27
2021-10-03 20:04:00,,0830.2,5.01,0.00,29.7,28.8,00.0,38.6,31.6,10.7,0001.3,0003.54,0008.56,0003.27
2021-10-03 20:05:00,,0830.3,4.98,0.00,29.8,28.9,00.0,38.6,31.7,10.4,0001.0,0003.53,0008.50,0003.27
2021-10-03 20:06:00,,0830.2,5.01,0.00,29.8,29.0,00.0,38.7,31.7,10.3,0000.0,0003.52,0008.47,0003.27
2021-10-03 20:07:00,,0830.1,5.01,0.00,29.8,27.8,00.0,38.7,31.4,10.4,0000.0,0003.54,0008.52,0003.27
2021-10-03 20:08:00,,0830.1,4.99,0.00,29.6,25.9,00.0,38.7,30.8,10.4,0000.0,0003.52,0007.99,0003.26
2021-10-03 20:09:00,,0830.1,5.01,0.00,29.4,25.9,00.0,38.6,30.8,10.7,0000.0,0003.52,0008.16,0003.25
2021-10-03 20:10:00,,0830.1,4.98,0.00,29.4,26.3,00.0,38.6,30.9,10.9,0000.0,0003.52,0008.11,0003.25
2021-10-03 20:11:00,,0830.1,5.01,0.00,29.4,26.8,00.0,38.5,31.0,10.8,0000.0,0003.52,0007.92,0003.24
2021-10-03 20:12:00,,0830.1,5.01,0.00,29.4,27.2,00.0,38.5,31.1,10.9,0000.0,0003.53,0007.88,0003.24
2021-10-03 20:13:00,,0830.2,5.00,0.00,29.4,27.6,00.0,38.5,31.2,10.6,0000.0,0003.52,0006.90,0003.23
2021-10-03 20:14:00,,0830.1,4.99,0.00,29.4,27.9,00.0,38.5,31.3,10.5,0000.0,0003.51,0006.21,0003.23
2021-10-03 20:15:00,,0830.1,5.01,0.00,29.5,28.2,00.0,38.5,31.3,10.4,0000.0,0003.53,0006.39,0003.24
2021-10-03 20:16:00,,0830.1,4.99,0.00,29.5,28.4,00.0,38.5,31.4,10.6,0001.8,0003.59,0006.76,0003.24
2021-10-03 20:17:00,,0830.1,4.99,0.00,29.6,28.6,00.0,38.5,31.5,10.6,0001.5,0003.62,0007.11,0003.24
2021-10-03 20:18:00,,0830.1,5.02,0.00,29.6,28.8,00.0,38.6,31.5,10.5,0001.5,0003.59,0007.02,0003.24
2021-10-03 20:19:00,,0830.1,5.00,0.00,29.7,28.9,00.0,38.6,31.6,10.6,0000.6,0003.59,0007.01,0003.24
2021-10-03 20:20:00,,0830.1,5.00,0.00,29.7,29.0,00.0,38.6,31.7,10.7,0000.0,0003.59,0006.51,0003.25
2021-10-03 20:21:00,,0830.1,5.01,0.00,29.8,29.1,00.0,38.7,31.7,10.8,0002.1,0003.61,0006.11,0003.27
2021-10-03 20:22:00,,0830.0,4.99,0.00,29.8,27.8,00.0,38.7,31.4,10.7,0002.1,0003.64,0006.31,0003.28
2021-10-03 20:23:00,,0830.0,5.00,0.00,29.6,26.1,00.0,38.6,30.9,10.5,0001.7,0003.65,0006.36,0003.29
2021-10-03 20:24:00,,0829.9,5.00,0.00,29.5,26.0,00.0,38.6,30.9,10.3,0000.9,0003.65,0006.41,0003.28
2021-10-03 20:25:00,,0829.9,4.99,0.00,29.4,26.4,00.0,38.6,31.0,10.3,0000.9,0003.67,0006.34,0003.29
2021-10-03 20:26:00,,0829.8,5.00,0.00,29.4,26.9,00.0,38.5,31.0,10.4,0000.0,0003.68,0006.93,0003.30
2021-10-03 20:27:00,,0829.9,5.00,0.00,29.4,27.3,00.0,38.5,31.1,10.4,0000.0,0003.65,0006.90,0003.29
2021-10-03 20:28:00,,0829.8,4.99,0.00,29.4,27.7,00.0,38.5,31.2,10.5,0000.0,0003.63,0006.59,0003.29
2021-10-03 20:29:00,,0829.9,5.01,0.00,29.5,28.0,00.0,38.5,31.3,10.6,0001.2,0003.65,0006.55,0003.29
2021-10-03 20:30:00,,0829.8,5.00,0.00,29.5,28.3,00.0,38.5,31.4,10.3,0001.9,0003.64,0006.68,0003.28
2021-10-03 20:31:00,,0829.8,5.00,0.00,29.6,28.5,00.0,38.5,31.4,10.5,0002.1,0003.64,0006.84,0003.28
2021-10-03 20:32:00,,0829.9,4.99,0.00,29.6,28.7,00.0,38.6,31.5,10.3,0001.3,0003.64,0007.02,0003.27
2021-10-03 20:33:00,,0829.9,4.99,0.00,29.7,28.8,00.0,38.6,31.6,10.6,0001.9,0003.62,0007.21,0003.27
2021-10-03 20:34:00,,0829.9,5.00,0.00,29.7,29.0,00.0,38.6,31.7,10.7,0001.6,0003.63,0007.29,0003.27
2021-10-03 20:35:00,,0829.9,5.00,0.00,29.8,29.0,00.0,38.6,31.7,10.9,0002.2,0003.66,0007.36,0003.29
2021-10-03 20:36:00,,0829.8,4.99,0.00,29.7,27.5,00.0,38.6,31.3,10.2,0002.6,0003.65,0007.36,0003.28
2021-10-03 20:37:00,,0829.8,5.01,0.00,29.5,25.9,00.0,38.6,30.7,10.4,0002.4,0003.64,0006.86,0003.28
2021-10-03 20:38:00,,0829.8,5.00,0.00,29.4,26.0,00.0,38.6,30.8,10.5,0002.5,0003.62,0006.50,0003.29
2021-10-03 20:39:00,,0829.8,5.00,0.00,29.4,26.4,00.0,38.6,30.9,11.0,0002.5,0003.65,0006.70,0003.30
2021-10-03 20:40:00,,0829.8,5.00,0.00,29.4,26.9,00.0,38.5,31.0,10.8,0001.7,0003.65,0007.00,0003.30
2021-10-03 20:41:00,,0829.8,4.99,0.00,29.4,27.3,00.0,38.5,31.1,10.9,0002.8,0003.70,0007.45,0003.32
2021-10-03 20:42:00,,0829.8,5.00,0.00,29.4,27.7,00.0,38.5,31.2,10.5,0000.3,0003.73,0007.47,0003.32
2021-10-03 20:43:00,,0829.8,5.00,0.00,29.5,28.0,00.0,38.5,31.3,10.6,0000.0,0003.71,0007.40,0003.32
2021-10-03 20:44:00,,0829.8,5.01,0.00,29.5,28.3,00.0,38.5,31.4,11.0,0000.0,0003.69,0007.25,0003.31
2021-10-03 20:45:00,,0829.8,5.01,0.00,29.5,28.5,00.0,38.5,31.4,10.9,0000.0,0003.67,0007.66,0003.31
2021-10-03 20:46:00,,0829.8,4.99,0.00,29.6,28.7,00.0,38.5,31.5,10.8,0000.0,0003.65,0007.56,0003.31
2021-10-03 20:47:00,,0829.8,4.99,0.00,29.7,28.8,00.0,38.5,31.6,10.8,0000.3,0003.65,0007.52,0003.32
2021-10-03 20:48:00,,0829.8,5.01,0.00,29.7,29.0,00.0,38.6,31.6,10.6,0003.3,0003.65,0007.46,0003.32
2021-10-03 20:49:00,,0829.8,5.00,0.00,29.7,28.1,00.0,38.6,31.4,10.5,0000.0,0003.65,0007.45,0003.33
2021-10-03 20:50:00,,0829.8,4.99,0.00,29.6,26.2,00.0,38.6,30.9,10.5,0000.6,0003.66,0007.44,0003.33
2021-10-03 20:51:00,,0829.8,5.01,0.00,29.4,25.8,00.0,38.6,30.7,10.6,0000.2,0003.64,0007.28,0003.33
2021-10-03 20:52:00,,0829.8,5.00,0.00,29.4,26.2,00.0,38.5,30.8,10.8,0001.3,0003.63,0006.59,0003.33
2021-10-03 20:53:00,,0829.8,4.98,0.00,29.3,26.7,00.0,38.5,30.9,10.7,0002.5,0003.57,0006.23,0003.33
2021-10-03 20:54:00,,0829.8,5.01,0.00,29.3,27.2,00.0,38.4,31.0,10.5,0003.3,0003.55,0006.07,0003.33
2021-10-03 20:55:00,,0829.7,4.99,0.00,29.4,27.6,00.0,38.4,31.1,10.5,0000.2,0003.56,0006.13,0003.32
2021-10-03 20:56:00,,0829.7,4.99,0.00,29.4,27.9,00.0,38.4,31.2,10.4,0000.0,0003.59,0006.02,0003.33
2021-10-03 20:57:00,,0829.7,5.00,0.00,29.4,28.2,00.0,38.4,31.3,10.4,0000.0,0003.62,0006.55,0003.33
2021-10-03 20:58:00,,0829.7,5.01,0.00,29.5,28.4,00.0,38.5,31.4,10.6,0000.0,0003.60,0006.56,0003.33
2021-10-03 20:59:00,,0829.7,4.99,0.00,29.5,28.6,00.0,38.5,31.5,10.3,0000.0,0003.59,0006.67,0003.32
